This demonstration page uses our WeatherBlox Daily Observations layout. Learn more.

Left ArrowRight Arrow

Hourly Observations for October 2, 2022

Temp ( °F °C ) Dew Point ( °F °C ) Humidity (%) Winds ( mph kmh ) Pressure ( in mb ) Visibility ( mi km ) Precip ( " mm )
12:05 am 00:05 Cloudy 52 11.1 51 10.6 97 97 E 8 13 30.12 1020 10 16 0.00 0.00
12:53 am 00:53 Cloudy 52 11.1 51 10.6 97 97 E 9 15 30.12 1020 10 16 0.00 0.00
1:53 am 01:53 Cloudy 52 11.1 51 10.6 97 97 E 6 9 30.11 1020 10 16 0.01 0.13
2:02 am 02:02 Cloudy 52 11.1 51 10.6 97 97 E 8 13 30.09 1019 10 16 0.00 0.00
2:13 am 02:13 Cloudy 52 11.1 51 10.6 97 97 E 7 11 30.09 1019 10 16 0.00 0.00
2:53 am 02:53 Cloudy 52 11.1 51 10.6 97 97 E 7 11 30.10 1019 10 16 0.00 0.00
3:10 am 03:10 Cloudy 52 11.1 51 10.6 97 97 E 8 13 30.09 1019 10 16 0.00 0.00
3:38 am 03:38 Cloudy 52 11.1 51 10.6 97 97 ESE 6 9 30.08 1018 10 16 0.00 0.00
3:45 am 03:45 Cloudy 52 11.1 51 10.6 97 97 S 5 7 30.08 1018 9 14 0.00 0.00
3:53 am 03:53 Cloudy 52 11.1 51 10.6 97 97 S 3 6 30.09 1019 10 16 0.00 0.00
4:53 am 04:53 Cloudy 52 11.1 51 10.6 97 97 W 3 6 30.08 1019 10 16 0.00 0.00
5:19 am 05:19 Cloudy 52 11.1 51 10.6 97 97 Calm 30.07 1018 10 16 0.00 0.00
5:37 am 05:37 Cloudy 52 11.1 51 10.6 97 97 Calm 30.07 1018 10 16 0.00 0.00
5:53 am 05:53 Cloudy 52 11.1 51 10.6 97 97 Calm 30.09 1019 10 16 0.00 0.00
6:53 am 06:53 Cloudy 52 11.1 51 10.6 97 97 SSW 3 6 30.09 1019 10 16 0.00 0.00
7:14 am 07:14 Cloudy 51 10.6 51 10.6 100 100 WSW 5 7 30.06 1018 10 16 0.00 0.00
7:21 am 07:21 Cloudy 51 10.6 50 10 96 96 WSW 6 9 30.06 1018 10 16 0.00 0.00
10:53 am 10:53 undefined 55 12.8 51 10.6 86 86 NNW 3 6 30.11 1020 10 16 0.00 0.00
11:21 am 11:21 Cloudy 55 12.8 51 10.6 86 86 NNW 3 6 30.07 1018 10 16 0.00 0.00
11:53 am 11:53 Cloudy 56 13.3 51 10.6 84 84 NNW 3 6 30.10 1019 10 16 0.00 0.00
12:53 pm 12:53 Cloudy 57 13.9 51 10.6 80 80 Calm 30.09 1019 10 16 0.00 0.00
1:53 pm 13:53 Cloudy 58 14.4 51 10.6 78 78 Calm 30.08 1019 10 16 0.00 0.00
2:02 pm 14:02 Cloudy 58 14.4 50 10 75 75 Calm 30.03 1017 10 16 0.00 0.00
2:32 pm 14:32 Cloudy 59 15 51 10.6 75 75 Calm 30.02 1017 10 16 0.00 0.00
2:53 pm 14:53 Cloudy 59 15 50 10 72 72 SSE 3 6 30.07 1018 10 16 0.00 0.00
3:53 pm 15:53 Cloudy 60 15.6 51 10.6 72 72 ENE 3 6 30.07 1018 10 16 0.00 0.00
4:53 pm 16:53 Cloudy 60 15.6 51 10.6 72 72 Calm 30.07 1018 10 16 0.00 0.00
5:53 pm 17:53 Cloudy 60 15.6 50 10 69 69 NNE 3 6 30.07 1018 10 16 0.00 0.00
6:53 pm 18:53 Cloudy 59 15 50 10 72 72 Calm 30.08 1019 10 16 0.00 0.00
7:53 pm 19:53 Cloudy 58 14.4 52 11.1 81 81 Calm 30.09 1019 10 16 0.00 0.00
8:53 pm 20:53 Cloudy 57 13.9 52 11.1 83 83 Calm 30.09 1019 10 16 0.00 0.00
9:53 pm 21:53 Clear 50 10 49 9.4 96 96 SSE 6 9 30.11 1020 10 16 0.00 0.00
10:53 pm 22:53 Clear 48 8.9 46 7.8 93 93 S 7 11 30.12 1020 10 16 0.00 0.00
11:53 pm 23:53 Cloudy 48 8.9 47 8.3 96 96 SSE 5 7 30.12 1020 10 16 0.00 0.00

Powered by AerisWeather